Regional Weather Roundup
Issued by NWS

Home | Current Version | Previous Version | Graphics & Text | Print | Product List | Glossary On
Versions: 1 2 3 4 5 6 7 8 9 10 11 12 13 14 15 16 17 18 19 20 21 22 23 24 25 26 27
000
ASUS45 KCYS 231610
RWRWY

WYOMING REGIONAL WEATHER ROUNDUP
NATIONAL WEATHER SERVICE CHEYENNE WY
1000 AM MDT TUE AUG 23 2016

NOTE:  "FAIR" INDICATES FEW OR NO CLOUDS BELOW 12,000 FEET
WITH NO SIGNIFICANT WEATHER AND/OR OBSTRUCTIONS TO VISIBILITY.

WYZ001-231700-
YELLOWSTONE NATIONAL PARK

CITY           SKY/WX    TMP DP  RH WIND       PRES   REMARKS
LK YELLOWSTONE   N/A     57  15  19 VRB5      30.24S
W YELLOWSTONE  NOT AVBL

$$
WYZ002>013-054>058-071-098>099-231700-
NORTHERN WYOMING

CITY           SKY/WX    TMP DP  RH WIND       PRES   REMARKS
JACKSON        SUNNY     57  21  24 CALM      30.18S
CODY           FAIR      63  34  34 NE7       30.09S
GREYBULL       FAIR      63  27  25 E3        30.01S HAZE
WORLAND        FAIR      69  23  17 CALM      30.03S
SHERIDAN       FAIR      67  28  23 NW10      30.05R
BUFFALO        FAIR      66  24  20 N16G24    30.08R
GILLETTE       FAIR      66  28  24 N18       30.02R
HULETT         FAIR      66  32  28 NW8       30.02R
NEWCASTLE      FAIR      68  28  22 NW17G26   29.96R

$$
WYZ014>020-022>026-101>103-231700-
CENTRAL WYOMING

CITY           SKY/WX    TMP DP  RH WIND       PRES   REMARKS
BIG PINEY      FAIR      67  15  13 VRB3      30.22F
PINEDALE       FAIR      61  19  20 CALM      30.24S
DUBOIS         FAIR      66  10  11 NW17G29   30.15S
LANDER         FAIR      71  20  14 SE9       30.09R
RIVERTON       FAIR      68  23  18 VRB5      30.08R
CASPER         FAIR      66  21  18 E3        30.09S
DOUGLAS        FAIR      71  23  16 NW14      30.07R

$$
WYZ021-027>030-104>119-231700-
SOUTHERN WYOMING

CITY           SKY/WX    TMP DP  RH WIND       PRES   REMARKS
EVANSTON       FAIR      65  30  27 CALM      30.25R
FORT BRIDGER   FAIR      69  28  21 NW13      30.26R
ROCK SPRINGS   FAIR      63  17  17 W8        30.22R
DIXON          FAIR      67  39  36 SW9       30.25R
RAWLINS        FAIR      66  23  19 W16       30.19R
SARATOGA       FAIR      70  23  17 W15G21    30.22S
LARAMIE        FAIR      70  28  21 W15G24    30.19R
CHEYENNE       FAIR      76  20  12 NW17G31   30.07R
TORRINGTON     FAIR      75  26  16 NW18G28   29.97R
PINE BLUFFS    FAIR      77  30  18 N21G26    30.03R

$$




USA.gov is the U.S. government's official web portal to all federal, state and local government web resources and services.